Station BGNN4 - 8519483 - BERGEN POINT WEST REACH- NY

Sailing guide
Sailing guide
english français italiano spagnolo
english français italiano español
Sea - Seek
Station BGNN4 - 8519483 - BERGEN POINT WEST REACH- NY
Station BGNN4 - 8519483 - BERGEN POINT WEST REACH- NY

Weather report - Station BGNN4 - 8519483 - BERGEN POINT WEST REACH- NY

Time Wind speed knots Wind direction Pressure ----
September 18, 2014 12:30 pm EDT 6 340 1016 Air Temperature:21.1
September 18, 2014 11:48 am EDT 3 310 1016 Air Temperature:21
September 18, 2014 10:48 am EDT 4 350 1016 Air Temperature:19.9
September 18, 2014 9:48 am EDT 2 310 1016 Air Temperature:18.4
September 18, 2014 8:48 am EDT 2 340 1016 Air Temperature:16.3
September 18, 2014 7:48 am EDT 0 1016 Air Temperature:15.1
September 18, 2014 6:48 am EDT 2 190 1016 Air Temperature:12.8
September 18, 2014 5:48 am EDT 2 190 1015 Air Temperature:13.3
September 18, 2014 4:48 am EDT 3 190 1015 Air Temperature:13.4
September 18, 2014 3:48 am EDT 1 190 1015 Air Temperature:13.8
September 18, 2014 2:48 am EDT 3 170 1015 Air Temperature:14.1
September 18, 2014 1:48 am EDT 1 210 1015 Air Temperature:14.8
September 18, 2014 12:48 am EDT 1 210 1015 Air Temperature:15.4
September 17, 2014 11:48 pm EDT 2 200 1015 Air Temperature:16.1
September 17, 2014 10:48 pm EDT 4 210 1015 Air Temperature:16.8
September 17, 2014 9:48 pm EDT 4 190 1016 Air Temperature:17.3
September 17, 2014 8:48 pm EDT 4 190 1015 Air Temperature:18.1
September 17, 2014 7:48 pm EDT 5 160 1015 Air Temperature:19.5
September 17, 2014 6:48 pm EDT 7 310 1015 Air Temperature:21.2
September 17, 2014 5:48 pm EDT 4 320 1015 Air Temperature:22
September 17, 2014 4:48 pm EDT 5 310 1014 Air Temperature:22.2
September 17, 2014 3:48 pm EDT 5 310 1015 Air Temperature:22.1
September 17, 2014 2:48 pm EDT 3 280 1015 Air Temperature:21.8
September 17, 2014 1:48 pm EDT 6 280 1016 Air Temperature:20.9
September 17, 2014 12:30 pm EDT 8 350 1017 Air Temperature:19.2
September 17, 2014 11:48 am EDT 3 330 1017 Air Temperature:19.1
September 17, 2014 10:48 am EDT 2 360 1018 Air Temperature:18.2
September 17, 2014 9:48 am EDT 4 30 1018 Air Temperature:16.9